User: anonymous   Login
Location: Warszawa
(52.2500°N, 21.0000°E)
Time: 18:38:56
(UTC+01:00)
Language:

Altair - Orbit

View from above orbital plane
View from above orbital plane
View from above satellite
View from above satellite

Ground track
Ground track

The orbit data is extracted from the following two-line orbital elements,

1 00050U 60009B   24052.91605028 -.00000042  00000-0  41311-3 0  9994
2 00050  47.2292 268.4593 0113678  12.7849 347.5784 12.20137931834379
Epoch (UTC): 21 February 2024 21:59:06
Eccentricity: 0.0113678
inclination: 47.2292°
perigee height: 1501 km
apogee height: 1682 km
right ascension of ascending node: 268.4593°
argument of perigee: 12.7849°
revolutions per day: 12.20137931
mean anomaly at epoch: 347.5784°
orbit number at epoch: 83437

The dashed part of the orbit path shows where the satellite is in the earth's shadow,  

DLR